If you wish to contribute or participate in the discussions about articles you are invited to join SKYbrary as a registered user

 Actions

Ambler Airport

From SKYbrary Wiki

PAFM
Airport
ICAO: PAFM – IATA: ABL
Summary
Name Ambler Airport
Region North America
Territory Alaska US.gif
Location , Alaska
Serving Ambler
Elevation 101.803 m
334 ft
334 ft101.803 m
Type medium airport
Coordinates 67° 6' 23.0004", -157° 51' 27"
Runways
Designator Length Width Surface ROPS
9/27 732 m2,401.575 ft 18 m59.055 ft GVL /
18/36 914 m2,998.688 ft 18 m59.055 ft GVL /


METAR
Observation PAFM 250356Z AUTO 29005KT 10SM BKN042 M17/M19 A2978 RMK AO2 SLP101 T11671189 FZRANO
Station Ambler, Ambler Airport
Date/Time 25 February 2018 03:56:00
Wind direction 290°
Wind speed 05 kts
Lowest cloud amount broken clouds
Temperature
Dew point
Humidity 82%
QNH hPa
Weather condition n/a